This demonstration page uses our WeatherBlox Daily Observations layout. Learn more.

Left ArrowRight Arrow

47.50024, -111.30081

Hourly Observations for December 3, 2022

Temp ( °F °C ) Dew Point ( °F °C ) Humidity (%) Winds ( mph kmh ) Pressure ( in mb ) Visibility ( mi km ) Precip ( " mm )
12:53 am 00:53 Clear 17 -8.3 6 -14.4 61 61 SW 12 19 30.25 1024 10 16 0.00 0.00
1:53 am 01:53 Clear 20 -6.7 5 -15 52 52 SSW 14 22 30.26 1025 10 16 0.00 0.00
2:53 am 02:53 Clear 20 -6.7 5 -15 52 52 SSW 13 20 30.26 1025 10 16 0.00 0.00
3:53 am 03:53 Clear 21 -6.1 6 -14.4 52 52 SW 21 33 30.25 1024 10 16 0.00 0.00
4:53 am 04:53 Clear 21 -6.1 5 -15 49 49 SW 17 28 30.25 1024 10 16 0.00 0.00
5:53 am 05:53 Clear 21 -6.1 6 -14.4 52 52 SW 15 24 30.26 1025 10 16 0.00 0.00
6:53 am 06:53 Clear 21 -6.1 6 -14.4 52 52 SW 16 26 30.25 1025 10 16 0.00 0.00
7:53 am 07:53 Clear 22 -5.6 6 -14.4 50 50 SW 14 22 30.26 1025 10 16 0.00 0.00
8:53 am 08:53 Sunny 23 -5 6 -14.4 48 48 SW 15 24 30.27 1025 10 16 0.00 0.00
9:53 am 09:53 Sunny 25 -3.9 7 -13.9 46 46 SW 17 28 30.26 1025 10 16 0.00 0.00
10:53 am 10:53 Sunny 27 -2.8 10 -12.2 48 48 SW 17 28 30.25 1025 10 16 0.00 0.00
11:53 am 11:53 Sunny 30 -1.1 10 -12.2 43 43 SW 15 24 30.24 1024 10 16 0.00 0.00
12:53 pm 12:53 Sunny 31 -0.6 11 -11.7 43 43 SW 18 30 30.21 1023 10 16 0.00 0.00
1:53 pm 13:53 Sunny 32 0 13 -10.6 45 45 SW 25 41 30.19 1022 10 16 0.00 0.00
2:53 pm 14:53 Sunny 32 0 13 -10.6 45 45 SW 24 39 30.17 1022 10 16 0.00 0.00
3:53 pm 15:53 Sunny 32 0 13 -10.6 45 45 SW 21 33 30.19 1022 10 16 0.00 0.00
4:53 pm 16:53 Clear 28 -2.2 11 -11.7 48 48 SW 14 22 30.23 1024 10 16 0.00 0.00
5:53 pm 17:53 Clear 27 -2.8 10 -12.2 48 48 SW 15 24 30.25 1024 10 16 0.00 0.00
6:53 pm 18:53 Clear 21 -6.1 9 -12.8 59 59 SSW 13 20 30.30 1026 10 16 0.00 0.00
7:53 pm 19:53 Clear 19 -7.2 8 -13.3 62 62 SSW 10 17 30.31 1026 10 16 0.00 0.00
8:53 pm 20:53 Clear 20 -6.7 8 -13.3 59 59 SSW 13 20 30.30 1026 10 16 0.00 0.00
9:53 pm 21:53 Clear 23 -5 9 -12.8 54 54 SSW 13 20 30.28 1025 10 16 0.00 0.00
10:53 pm 22:53 Clear 26 -3.3 9 -12.8 48 48 SSW 16 26 30.25 1024 10 16 0.00 0.00
11:53 pm 23:53 Clear 26 -3.3 10 -12.2 50 50 SSW 17 28 30.22 1023 10 16 0.00 0.00

Powered by AerisWeather